Content
SEND FEEDBACK

Daily
Averages
Monthly
Summary
United States of America

SOUTH LAKE TAHOE, CALIFORNIA


Home > North America > United States > California
Elevation: 6263 feet     Latitude: 38 53N     Longitude: 119 59W

WEATHER
 
SELECT A DAY
Number of Records: 174,325;   Date Range: 1/1/95 - 7/22/14
 
SHARE

PRINT THIS DATA

[ ← Previous Day ]
WEATHER ALMANAC - FEBRUARY 2, 2013
[ Next Day → ]
[ °C ]   °F
Weather ElementAverageHighLow
Temperature31.2 °F43 °F (1:53 pm)21 °F (4:53 am)
Dewpoint21.4 °F28 °F (4:53 pm)15.1 °F (6:53 am)
Humidity68.5 %85 % (9:53 pm)47 % (2:53 pm)
Barometer30.36 in30.44 in (8:53 am)30.30 in (11:53 pm)
Wind Speed1.5 mph5.8 mph (11:53 am)
Weather ElementAverage
Visibility9.7 mi
Wind DirectionNNE (25.7 °)

Weather ElementTotal
Precipitation---
Heating Degree Days33 (Base 65)
Averaged from 21 records on February 2, 2013
WEATHER CONDITIONS BREAKOUT
WIND DIRECTION BREAKOUT
WEATHER BY HOUR - FEBRUARY 2, 2013
[ °C ]   °F
Local TimeTemperatureDewpointHumidityBarometerVisibilityWind DirectionWind SpeedGust SpeedPrecipitationEventsConditions
2:53 AM23.0 °F17.1 °F78 %30.35 in8.0 miCalmClear
4:53 AM21.0 °F16.0 °F81 %30.38 in10.0 miSouth (190°)3.5 mphClear
5:53 AM21.0 °F16.0 °F81 %30.40 in10.0 miCalmClear
6:14 AM21.2 °F15.8 °F80 %30.34 in10.0 miCalmClear
6:53 AM21.0 °F15.1 °F78 %30.41 in10.0 miCalmClear
7:53 AM23.0 °F16.0 °F74 %30.42 in10.0 miCalmClear
8:53 AM25.0 °F17.1 °F72 %30.44 in10.0 miCalmClear
9:53 AM30.0 °F18.0 °F61 %30.43 in10.0 miCalmClear
10:53 AM34.0 °F19.0 °F54 %30.40 in10.0 miCalmClear
11:53 AM41.0 °F23.0 °F49 %30.36 in10.0 miNE (40°)5.8 mphClear
12:53 PM42.1 °F25.0 °F51 %30.34 in10.0 miNNE (30°)4.6 mphClear
1:53 PM43.0 °F25.0 °F49 %30.33 in10.0 miNE (40°)5.8 mphPartly Cloudy
2:53 PM43.0 °F24.1 °F47 %30.32 in10.0 miNNE (30°)4.6 mphClear
3:53 PM42.1 °F26.1 °F53 %30.33 in10.0 miNNE (20°)4.6 mphScattered Clouds
4:53 PM39.0 °F28.0 °F65 %30.34 in10.0 miCalmMostly Cloudy
5:53 PM36.0 °F27.0 °F70 %30.35 in10.0 miCalmClear
6:53 PM34.0 °F26.1 °F73 %30.36 in10.0 miCalmOvercast
7:53 PM33.1 °F26.1 °F75 %30.36 in10.0 miCalmOvercast
9:53 PM28.0 °F24.1 °F85 %30.35 in9.0 miCalmClear
10:53 PM28.0 °F23.0 °F81 %30.32 in8.0 miSouth (190°)3.5 mphClear
11:53 PM26.1 °F21.0 °F81 %30.30 in8.0 miCalmClear
Hourly data recorded from KTVL, located miles away from South Lake Tahoe, California







STORIES FROM OUR PARTNERS